GLO9913 SPJC-SBCF

Flight info

Callsign GLO9913
Flight time N/A
Altitude 36000
Route PAKOL UM668 ZCO UV10 URC UM668 TRI UN420 VIR UM411 TITVO UZ82 ANSOK UZ42 VUREP
Aircraft B738/M-SDFGIKLORWXY/LB1

Departure

Time 2026-05-06 09:33
Airport Jorge Chávez International Airport (SPJC)

Arrival

Time N/A
Airport Tancredo Neves International Airport (SBCF)
Time Latitude Longitude Altitude Speed Heading
2026-05-06 09:09 -12.02014 -77.11068 97 ft 0 kts 154°
2026-05-06 09:23 -12.02011 -77.11069 97 ft 2 kts 155°
2026-05-06 09:24 -12.01994 -77.11076 97 ft 3 kts 172°
2026-05-06 09:24 -12.01976 -77.11075 94 ft 3 kts 210°
2026-05-06 09:24 -12.01967 -77.11066 95 ft 1 kts 244°
2026-05-06 09:24 -12.01966 -77.11065 95 ft 1 kts 244°
2026-05-06 09:28 -12.01967 -77.11067 95 ft 2 kts 244°
2026-05-06 09:28 -12.01987 -77.11108 95 ft 11 kts 244°
2026-05-06 09:28 -12.02010 -77.11157 98 ft 3 kts 247°
2026-05-06 09:28 -12.01992 -77.11190 96 ft 8 kts 333°
2026-05-06 09:29 -12.01932 -77.11250 93 ft 15 kts 303°
2026-05-06 09:29 -12.01879 -77.11355 92 ft 18 kts 300°
2026-05-06 09:29 -12.01771 -77.11427 88 ft 19 kts 334°
2026-05-06 09:29 -12.01654 -77.11485 85 ft 20 kts 334°
2026-05-06 09:30 -12.01525 -77.11549 84 ft 21 kts 334°
2026-05-06 09:30 -12.01397 -77.11612 81 ft 20 kts 335°
2026-05-06 09:30 -12.01265 -77.11677 75 ft 22 kts 334°
2026-05-06 09:30 -12.01119 -77.11749 69 ft 24 kts 334°
2026-05-06 09:31 -12.00967 -77.11825 70 ft 25 kts 334°
2026-05-06 09:31 -12.00813 -77.11901 63 ft 21 kts 334°
2026-05-06 09:31 -12.00687 -77.11972 63 ft 21 kts 309°
2026-05-06 09:31 -12.00727 -77.12098 59 ft 20 kts 211°
2026-05-06 09:32 -12.00831 -77.12103 55 ft 11 kts 156°
2026-05-06 09:32 -12.00837 -77.12100 57 ft 0 kts 155°
2026-05-06 09:32 -12.00857 -77.12090 56 ft 11 kts 155°
2026-05-06 09:33 -12.01136 -77.11952 68 ft 79 kts 154°
2026-05-06 09:33 -12.01821 -77.11612 81 ft 137 kts 154°
2026-05-06 09:33 -12.02829 -77.11117 172 ft 178 kts 154°
2026-05-06 09:33 -12.03886 -77.10593 1058 ft 167 kts 154°
2026-05-06 09:34 -12.04989 -77.10045 1591 ft 189 kts 154°
2026-05-06 09:34 -12.06256 -77.09424 1850 ft 217 kts 154°
2026-05-06 09:34 -12.07695 -77.08718 2112 ft 242 kts 154°
2026-05-06 09:34 -12.09286 -77.07934 2612 ft 258 kts 154°
2026-05-06 09:35 -12.10904 -77.07135 3351 ft 263 kts 154°
2026-05-06 09:35 -12.12578 -77.06307 4085 ft 269 kts 154°
2026-05-06 09:35 -12.14279 -77.05466 4857 ft 273 kts 154°
2026-05-06 09:35 -12.15984 -77.04622 5553 ft 278 kts 154°
2026-05-06 09:36 -12.17744 -77.03752 6294 ft 280 kts 154°
2026-05-06 09:36 -12.19492 -77.02888 7002 ft 283 kts 154°
2026-05-06 09:36 -12.21280 -77.02005 7688 ft 286 kts 154°
2026-05-06 09:36 -12.23081 -77.01101 8367 ft 289 kts 150°
2026-05-06 09:37 -12.24569 -76.99747 8973 ft 292 kts 124°
2026-05-06 09:37 -12.25586 -76.97920 9663 ft 295 kts 117°
2026-05-06 09:37 -12.26500 -76.96020 10262 ft 301 kts 116°
2026-05-06 09:37 -12.27429 -76.94039 10440 ft 322 kts 115°
2026-05-06 09:38 -12.28428 -76.91909 10611 ft 341 kts 116°
2026-05-06 09:38 -12.29479 -76.89688 11017 ft 350 kts 116°
2026-05-06 09:38 -12.30555 -76.87431 11582 ft 353 kts 116°
2026-05-06 09:38 -12.31627 -76.85193 12170 ft 354 kts 116°
2026-05-06 09:39 -12.32721 -76.82918 12773 ft 356 kts 116°
2026-05-06 09:39 -12.33823 -76.80630 13341 ft 359 kts 116°
2026-05-06 09:39 -12.34920 -76.78352 13894 ft 363 kts 116°
2026-05-06 09:39 -12.36045 -76.76016 14441 ft 365 kts 116°
2026-05-06 09:40 -12.37172 -76.73677 14996 ft 367 kts 116°
2026-05-06 09:40 -12.38290 -76.71355 15526 ft 370 kts 116°
2026-05-06 09:40 -12.40554 -76.66591 16614 ft 374 kts 114°
2026-05-06 09:41 -12.41614 -76.64142 17156 ft 377 kts 113°
2026-05-06 09:41 -12.42653 -76.61656 17671 ft 380 kts 113°
2026-05-06 09:41 -12.43688 -76.59158 18195 ft 383 kts 113°
2026-05-06 09:41 -12.44734 -76.56638 18643 ft 386 kts 113°
2026-05-06 09:42 -12.45779 -76.54132 19066 ft 389 kts 113°
2026-05-06 09:42 -12.46852 -76.51571 19468 ft 392 kts 113°
2026-05-06 09:42 -12.47936 -76.48993 19900 ft 395 kts 113°
2026-05-06 09:42 -12.49028 -76.46404 20313 ft 398 kts 113°
2026-05-06 09:43 -12.50129 -76.43796 20728 ft 401 kts 113°
2026-05-06 09:43 -12.51230 -76.41189 21118 ft 404 kts 113°
2026-05-06 09:43 -12.52350 -76.38536 21521 ft 407 kts 113°
2026-05-06 09:43 -12.53482 -76.35855 21930 ft 410 kts 112°
2026-05-06 09:44 -12.54603 -76.33200 22320 ft 413 kts 112°
2026-05-06 09:44 -12.55746 -76.30492 22697 ft 416 kts 112°
2026-05-06 09:44 -12.56897 -76.27763 23094 ft 419 kts 112°
2026-05-06 09:44 -12.57671 -76.25930 23351 ft 420 kts 112°
2026-05-06 09:45 -12.59215 -76.22267 23824 ft 424 kts 112°
2026-05-06 09:45 -12.60007 -76.20389 24044 ft 426 kts 112°
2026-05-06 09:45 -12.61169 -76.17630 24380 ft 427 kts 112°
2026-05-06 09:45 -12.62353 -76.14822 24716 ft 429 kts 112°
2026-05-06 09:46 -12.63535 -76.12015 25027 ft 431 kts 112°
2026-05-06 09:46 -12.64726 -76.09185 25335 ft 434 kts 112°
2026-05-06 09:46 -12.65925 -76.06336 25644 ft 436 kts 112°
2026-05-06 09:46 -12.67127 -76.03478 25949 ft 438 kts 112°
2026-05-06 09:47 -12.68339 -76.00595 26253 ft 440 kts 112°
2026-05-06 09:47 -12.69538 -75.97744 26564 ft 442 kts 112°
2026-05-06 09:47 -12.70758 -75.94839 26851 ft 444 kts 112°
2026-05-06 09:47 -12.71983 -75.91924 27185 ft 445 kts 111°
2026-05-06 09:48 -12.73198 -75.89031 27428 ft 448 kts 111°
2026-05-06 09:48 -12.74438 -75.86077 27749 ft 449 kts 111°
2026-05-06 09:48 -12.75675 -75.83129 28064 ft 450 kts 111°
2026-05-06 09:48 -12.76920 -75.80161 28337 ft 453 kts 111°
2026-05-06 09:49 -12.78154 -75.77219 28585 ft 455 kts 111°
2026-05-06 09:49 -12.79409 -75.74223 28826 ft 457 kts 111°
2026-05-06 09:49 -12.80654 -75.71252 29069 ft 459 kts 111°
2026-05-06 09:49 -12.81917 -75.68238 29297 ft 461 kts 111°
2026-05-06 09:50 -12.83186 -75.65206 29575 ft 462 kts 111°
2026-05-06 09:50 -12.84462 -75.62157 29816 ft 464 kts 111°
2026-05-06 09:50 -12.85735 -75.59115 30057 ft 466 kts 110°
2026-05-06 09:50 -12.87017 -75.56049 30279 ft 468 kts 110°
2026-05-06 09:51 -12.88289 -75.53008 30490 ft 469 kts 110°
2026-05-06 09:51 -12.89572 -75.49939 30740 ft 469 kts 110°
2026-05-06 09:51 -12.90856 -75.46868 31006 ft 469 kts 110°
2026-05-06 09:51 -12.92139 -75.43796 31231 ft 469 kts 110°
2026-05-06 09:52 -12.93431 -75.40700 31456 ft 470 kts 110°
2026-05-06 09:52 -12.94719 -75.37615 31699 ft 470 kts 111°
2026-05-06 09:52 -12.95994 -75.34557 31936 ft 471 kts 111°
2026-05-06 09:52 -12.97288 -75.31454 32146 ft 471 kts 111°
2026-05-06 09:53 -12.98563 -75.28395 32396 ft 472 kts 111°
2026-05-06 09:53 -12.99855 -75.25293 32641 ft 472 kts 111°
2026-05-06 09:53 -13.01146 -75.22195 32866 ft 473 kts 111°
2026-05-06 09:53 -13.02443 -75.19080 33073 ft 473 kts 111°
2026-05-06 09:54 -13.03736 -75.15973 33304 ft 474 kts 111°
2026-05-06 09:54 -13.05013 -75.12904 33550 ft 474 kts 111°
2026-05-06 09:54 -13.06313 -75.09778 33761 ft 474 kts 111°
2026-05-06 09:54 -13.07606 -75.06665 33983 ft 475 kts 111°
2026-05-06 09:55 -13.08909 -75.03530 34182 ft 476 kts 111°
2026-05-06 09:55 -13.10193 -75.00439 34420 ft 476 kts 111°
2026-05-06 09:55 -13.11492 -74.97310 34694 ft 474 kts 111°
2026-05-06 09:55 -13.12783 -74.94201 34980 ft 472 kts 111°
2026-05-06 09:56 -13.14055 -74.91135 35225 ft 472 kts 111°
2026-05-06 09:56 -13.15342 -74.88032 35462 ft 471 kts 111°
2026-05-06 09:56 -13.16630 -74.84926 35734 ft 469 kts 112°
2026-05-06 09:56 -13.17908 -74.81840 36018 ft 468 kts 112°
2026-05-06 09:57 -13.19165 -74.78807 36220 ft 468 kts 112°
2026-05-06 09:57 -13.20444 -74.75716 36288 ft 470 kts 112°
2026-05-06 09:57 -13.22991 -74.69561 36282 ft 469 kts 112°
2026-05-06 09:58 -13.25544 -74.63386 36290 ft 468 kts 112°
2026-05-06 09:58 -13.28076 -74.57258 36282 ft 467 kts 112°
2026-05-06 09:59 -13.30606 -74.51130 36284 ft 467 kts 112°
2026-05-06 09:59 -13.33141 -74.44985 36283 ft 466 kts 112°
2026-05-06 10:00 -13.35655 -74.38886 36274 ft 466 kts 112°
2026-05-06 10:00 -13.38174 -74.32767 36278 ft 466 kts 112°
2026-05-06 10:01 -13.40701 -74.26627 36270 ft 467 kts 112°
2026-05-06 10:01 -13.43235 -74.20465 36276 ft 467 kts 112°
2026-05-06 10:02 -13.45760 -74.14319 36278 ft 467 kts 112°
2026-05-06 10:02 -13.48276 -74.08190 36268 ft 468 kts 112°
2026-05-06 10:03 -13.50796 -74.02048 36270 ft 468 kts 112°
2026-05-06 10:03 -13.53329 -73.95867 36264 ft 469 kts 112°
2026-05-06 10:04 -13.55855 -73.89700 36263 ft 469 kts 112°
2026-05-06 10:04 -13.58393 -73.83496 36259 ft 469 kts 112°
2026-05-06 10:05 -13.60912 -73.77335 36261 ft 469 kts 112°
2026-05-06 10:05 -13.63431 -73.71170 36267 ft 468 kts 112°
2026-05-06 10:06 -13.65955 -73.64986 36350 ft 468 kts 112°
2026-05-06 10:06 -13.68465 -73.58833 36428 ft 468 kts 112°
2026-05-06 10:07 -13.70984 -73.52651 36513 ft 468 kts 112°
2026-05-06 10:07 -13.73489 -73.46499 36588 ft 468 kts 112°
2026-05-06 10:08 -13.75996 -73.40338 36619 ft 468 kts 112°
2026-05-06 10:08 -13.78385 -73.34096 36612 ft 467 kts 105°
2026-05-06 10:09 -13.80118 -73.27670 36583 ft 467 kts 103°
2026-05-06 10:09 -13.81282 -73.21148 36520 ft 466 kts 96°
2026-05-06 10:10 -13.82114 -73.14527 36431 ft 466 kts 95°
2026-05-06 10:10 -13.82939 -73.07937 36365 ft 465 kts 96°
2026-05-06 10:11 -13.83814 -73.01312 36272 ft 466 kts 96°
2026-05-06 10:11 -13.84705 -72.94748 36295 ft 464 kts 96°
2026-05-06 10:12 -13.85598 -72.88198 36266 ft 462 kts 96°
2026-05-06 10:12 -13.86487 -72.81652 36286 ft 463 kts 96°
2026-05-06 10:13 -13.87382 -72.75043 36293 ft 465 kts 96°
2026-05-06 10:13 -13.88273 -72.68447 36286 ft 467 kts 96°
2026-05-06 10:14 -13.89170 -72.61792 36290 ft 469 kts 96°
2026-05-06 10:14 -13.90063 -72.55154 36288 ft 470 kts 96°
2026-05-06 10:15 -13.90954 -72.48514 36290 ft 470 kts 96°
2026-05-06 10:15 -13.91846 -72.41854 36291 ft 470 kts 96°
2026-05-06 10:16 -13.92740 -72.35167 36281 ft 469 kts 96°
2026-05-06 10:16 -13.93622 -72.28560 36284 ft 467 kts 96°
2026-05-06 10:17 -13.94499 -72.21971 36284 ft 465 kts 96°
2026-05-06 10:17 -13.95377 -72.15357 36309 ft 464 kts 96°
2026-05-06 10:18 -13.96247 -72.08791 36301 ft 463 kts 96°
2026-05-06 10:18 -13.97112 -72.02253 36298 ft 463 kts 96°
2026-05-06 10:19 -13.97978 -71.95689 36304 ft 462 kts 96°
2026-05-06 10:19 -13.98839 -71.89152 36305 ft 462 kts 96°
2026-05-06 10:20 -13.99697 -71.82591 36315 ft 460 kts 96°
2026-05-06 10:20 -14.00552 -71.76084 36309 ft 461 kts 96°
2026-05-06 10:21 -14.01412 -71.69523 36315 ft 461 kts 96°
2026-05-06 10:21 -14.02263 -71.63011 36316 ft 461 kts 96°
2026-05-06 10:22 -14.03120 -71.56435 36306 ft 462 kts 96°
2026-05-06 10:22 -14.03978 -71.49836 36298 ft 469 kts 96°
2026-05-06 10:23 -14.04844 -71.43155 36308 ft 473 kts 96°
2026-05-06 10:23 -14.05716 -71.36424 36294 ft 474 kts 96°
2026-05-06 10:24 -14.06580 -71.29746 36303 ft 466 kts 96°
2026-05-06 10:24 -14.07433 -71.23131 36311 ft 466 kts 96°
2026-05-06 10:25 -14.08280 -71.16532 36302 ft 465 kts 96°
2026-05-06 10:25 -14.09132 -71.09892 36308 ft 466 kts 96°
2026-05-06 10:26 -14.09978 -71.03292 36316 ft 467 kts 96°
2026-05-06 10:26 -14.10824 -70.96662 36315 ft 468 kts 96°
2026-05-06 10:27 -14.11676 -70.89980 36303 ft 470 kts 96°
2026-05-06 10:27 -14.12522 -70.83340 36309 ft 471 kts 96°
2026-05-06 10:28 -14.13375 -70.76615 36315 ft 472 kts 96°
2026-05-06 10:28 -14.14225 -70.69894 36323 ft 473 kts 96°
2026-05-06 10:29 -14.15071 -70.63207 36310 ft 473 kts 96°
2026-05-06 10:29 -14.15920 -70.56468 36307 ft 473 kts 96°
2026-05-06 10:30 -14.16760 -70.49793 36293 ft 472 kts 96°
2026-05-06 10:30 -14.17602 -70.43081 36313 ft 470 kts 96°
2026-05-06 10:31 -14.18439 -70.36395 36313 ft 469 kts 96°
2026-05-06 10:31 -14.19267 -70.29763 36305 ft 468 kts 96°
2026-05-06 10:32 -14.20097 -70.23102 36312 ft 467 kts 96°
2026-05-06 10:32 -14.20922 -70.16471 36312 ft 466 kts 96°
2026-05-06 10:33 -14.21744 -70.09843 36302 ft 466 kts 96°
2026-05-06 10:33 -14.22560 -70.03245 36306 ft 466 kts 96°
2026-05-06 10:34 -14.23381 -69.96599 36289 ft 467 kts 96°
2026-05-06 10:34 -14.24201 -69.89940 36277 ft 468 kts 96°
2026-05-06 10:35 -14.25014 -69.83326 36260 ft 468 kts 96°
2026-05-06 10:35 -14.25832 -69.76658 36239 ft 469 kts 96°
2026-05-06 10:36 -14.26648 -69.69990 36229 ft 469 kts 96°
2026-05-06 10:36 -14.27462 -69.63317 36205 ft 469 kts 96°
2026-05-06 10:37 -14.28274 -69.56647 36207 ft 469 kts 96°
2026-05-06 10:37 -14.29080 -69.50010 36200 ft 469 kts 96°
2026-05-06 10:38 -14.29892 -69.43315 36200 ft 470 kts 96°
2026-05-06 10:38 -14.30701 -69.36623 36184 ft 470 kts 96°
2026-05-06 10:39 -14.31372 -69.31058 36179 ft 469 kts 96°
2026-05-06 10:39 -14.32308 -69.23287 36173 ft 468 kts 96°
2026-05-06 10:40 -14.32973 -69.17748 36162 ft 468 kts 96°
2026-05-06 10:40 -14.33771 -69.11090 36164 ft 466 kts 95°
2026-05-06 10:41 -14.34692 -69.03378 36153 ft 465 kts 95°
2026-05-06 10:41 -14.35354 -68.97832 36147 ft 465 kts 95°
2026-05-06 10:42 -14.36137 -68.91239 36138 ft 465 kts 95°
2026-05-06 10:42 -14.36925 -68.84605 36139 ft 465 kts 95°
2026-05-06 10:43 -14.37704 -68.78025 36139 ft 465 kts 95°
2026-05-06 10:44 -14.38875 -68.68098 36126 ft 465 kts 95°
2026-05-06 10:44 -14.39655 -68.61462 36120 ft 466 kts 95°
2026-05-06 10:45 -14.40435 -68.54818 36114 ft 466 kts 95°
2026-05-06 10:45 -14.41215 -68.48161 36121 ft 467 kts 95°
2026-05-06 10:46 -14.41988 -68.41539 36113 ft 467 kts 95°
2026-05-06 10:46 -14.42764 -68.34881 36103 ft 467 kts 95°
2026-05-06 10:47 -14.43539 -68.28216 36100 ft 467 kts 95°
2026-05-06 10:47 -14.44306 -68.21597 36099 ft 467 kts 95°
2026-05-06 10:48 -14.45076 -68.14937 36090 ft 467 kts 95°
2026-05-06 10:48 -14.45845 -68.08276 36084 ft 466 kts 95°
2026-05-06 10:49 -14.46607 -68.01649 36078 ft 466 kts 95°
2026-05-06 10:49 -14.47368 -67.95017 36065 ft 466 kts 96°
2026-05-06 10:50 -14.48128 -67.88383 36057 ft 466 kts 96°
2026-05-06 10:50 -14.48888 -67.81727 36044 ft 465 kts 96°
2026-05-06 10:51 -14.49643 -67.75102 36035 ft 465 kts 96°
2026-05-06 10:51 -14.50393 -67.68497 36023 ft 465 kts 96°
2026-05-06 10:52 -14.51142 -67.61888 36026 ft 464 kts 96°
2026-05-06 10:52 -14.51893 -67.55248 36023 ft 464 kts 96°
2026-05-06 10:53 -14.52637 -67.48649 36022 ft 464 kts 96°
2026-05-06 10:53 -14.53382 -67.42020 36022 ft 465 kts 96°
2026-05-06 10:54 -14.54123 -67.35416 36022 ft 464 kts 96°
2026-05-06 10:54 -14.54862 -67.28814 36025 ft 464 kts 96°
2026-05-06 10:55 -14.55480 -67.23275 36026 ft 465 kts 96°
2026-05-06 10:56 -14.57160 -67.08166 36023 ft 465 kts 96°
2026-05-06 10:56 -14.57773 -67.02632 36022 ft 465 kts 96°
2026-05-06 10:57 -14.58504 -66.96013 36022 ft 465 kts 96°
2026-05-06 10:57 -14.59238 -66.89353 36021 ft 465 kts 96°
2026-05-06 10:58 -14.59968 -66.82713 36022 ft 465 kts 96°
2026-05-06 10:58 -14.60692 -66.76100 36019 ft 466 kts 96°
2026-05-06 10:59 -14.61421 -66.69431 36021 ft 466 kts 96°
2026-05-06 10:59 -14.62141 -66.62832 36018 ft 466 kts 96°
2026-05-06 11:00 -14.62865 -66.56172 36019 ft 466 kts 96°
2026-05-06 11:01 -14.64356 -66.42401 36019 ft 465 kts 96°
2026-05-06 11:01 -14.65075 -66.35737 36019 ft 465 kts 96°
2026-05-06 11:02 -14.65788 -66.29107 36019 ft 465 kts 96°
2026-05-06 11:02 -14.66497 -66.22497 36017 ft 465 kts 96°
2026-05-06 11:03 -14.67206 -66.15862 36019 ft 465 kts 96°
2026-05-06 11:03 -14.67917 -66.09204 36021 ft 465 kts 96°
2026-05-06 11:04 -14.68618 -66.02608 36020 ft 464 kts 96°
2026-05-06 11:04 -14.69325 -65.95948 36018 ft 464 kts 96°
2026-05-06 11:05 -14.70024 -65.89339 36024 ft 464 kts 96°
2026-05-06 11:05 -14.70721 -65.82733 36028 ft 464 kts 96°
2026-05-06 11:06 -14.71416 -65.76131 36025 ft 463 kts 96°
2026-05-06 11:06 -14.72112 -65.69496 36020 ft 463 kts 96°
2026-05-06 11:07 -14.72802 -65.62902 36022 ft 463 kts 96°
2026-05-06 11:07 -14.73491 -65.56302 36022 ft 463 kts 96°
2026-05-06 11:08 -14.74180 -65.49680 36023 ft 463 kts 96°
2026-05-06 11:08 -14.74869 -65.43033 36031 ft 471 kts 96°
2026-05-06 11:09 -14.75572 -65.36243 36030 ft 481 kts 95°
2026-05-06 11:09 -14.76287 -65.29309 36030 ft 489 kts 96°
2026-05-06 11:10 -14.77006 -65.22322 36020 ft 490 kts 96°
2026-05-06 11:10 -14.77727 -65.15292 36017 ft 491 kts 95°
2026-05-06 11:11 -14.78443 -65.08291 36019 ft 491 kts 95°
2026-05-06 11:11 -14.79156 -65.01299 36021 ft 490 kts 95°
2026-05-06 11:12 -14.79890 -64.94311 36019 ft 489 kts 98°
2026-05-06 11:12 -14.81536 -64.87483 36022 ft 488 kts 106°
2026-05-06 11:13 -14.83490 -64.80785 36019 ft 488 kts 107°
2026-05-06 11:13 -14.85432 -64.74088 36021 ft 488 kts 106°
2026-05-06 11:14 -14.87343 -64.67334 36021 ft 487 kts 106°
2026-05-06 11:14 -14.89217 -64.60632 36021 ft 487 kts 106°
2026-05-06 11:15 -14.91085 -64.53925 36021 ft 487 kts 106°
2026-05-06 11:15 -14.92962 -64.47181 36021 ft 486 kts 106°
2026-05-06 11:16 -14.94829 -64.40475 36024 ft 486 kts 106°
2026-05-06 11:16 -14.96693 -64.33769 36019 ft 486 kts 106°
2026-05-06 11:17 -14.98564 -64.27035 36021 ft 486 kts 106°
2026-05-06 11:17 -15.00415 -64.20362 36026 ft 486 kts 106°
2026-05-06 11:18 -15.02277 -64.13638 36024 ft 486 kts 106°
2026-05-06 11:18 -15.04144 -64.06891 36024 ft 486 kts 106°
2026-05-06 11:19 -15.05995 -64.00192 36023 ft 486 kts 106°
2026-05-06 11:19 -15.07855 -63.93456 36024 ft 486 kts 105°
2026-05-06 11:20 -15.09703 -63.86752 36025 ft 486 kts 105°
2026-05-06 11:20 -15.11563 -63.79994 36025 ft 486 kts 105°
2026-05-06 11:21 -15.13413 -63.73267 36026 ft 486 kts 105°
2026-05-06 11:21 -15.15255 -63.66557 36025 ft 487 kts 105°
2026-05-06 11:22 -15.17108 -63.59801 36021 ft 487 kts 105°
2026-05-06 11:22 -15.18946 -63.53092 36027 ft 487 kts 105°
2026-05-06 11:23 -15.20797 -63.46328 36023 ft 487 kts 105°
2026-05-06 11:23 -15.22637 -63.39595 36028 ft 486 kts 105°
2026-05-06 11:24 -15.24468 -63.32884 36028 ft 486 kts 105°
2026-05-06 11:24 -15.26308 -63.26132 36026 ft 486 kts 105°
2026-05-06 11:25 -15.28148 -63.19375 36030 ft 486 kts 105°
2026-05-06 11:25 -15.29970 -63.12672 36029 ft 486 kts 105°
2026-05-06 11:26 -15.31493 -63.07062 36028 ft 486 kts 105°
2026-05-06 11:26 -15.33324 -63.00313 36032 ft 486 kts 105°
2026-05-06 11:27 -15.35144 -62.93594 36039 ft 486 kts 105°
2026-05-06 11:27 -15.36975 -62.86825 36039 ft 486 kts 105°
2026-05-06 11:28 -15.38790 -62.80108 36037 ft 486 kts 105°
2026-05-06 11:28 -15.40612 -62.73356 36041 ft 486 kts 105°
2026-05-06 11:29 -15.42424 -62.66632 36043 ft 485 kts 105°
2026-05-06 11:29 -15.44232 -62.59914 36045 ft 485 kts 105°
2026-05-06 11:30 -15.46047 -62.53160 36046 ft 485 kts 105°
2026-05-06 11:30 -15.47851 -62.46441 36046 ft 485 kts 105°
2026-05-06 11:31 -15.49663 -62.39679 36048 ft 485 kts 105°
2026-05-06 11:31 -15.51466 -62.32946 36047 ft 485 kts 105°
2026-05-06 11:32 -15.53262 -62.26230 36046 ft 485 kts 106°
2026-05-06 11:32 -15.55070 -62.19460 36053 ft 485 kts 106°
2026-05-06 11:33 -15.56863 -62.12736 36045 ft 485 kts 105°
2026-05-06 11:33 -15.58656 -62.06004 36050 ft 485 kts 106°
2026-05-06 11:34 -15.60453 -61.99247 36050 ft 485 kts 106°
2026-05-06 11:34 -15.62242 -61.92514 36053 ft 485 kts 106°
2026-05-06 11:35 -15.64035 -61.85754 36049 ft 485 kts 106°
2026-05-06 11:35 -15.65815 -61.79036 36050 ft 485 kts 106°
2026-05-06 11:36 -15.67596 -61.72305 36054 ft 485 kts 106°
2026-05-06 11:36 -15.69374 -61.65577 36051 ft 485 kts 106°
2026-05-06 11:37 -15.71154 -61.58832 36052 ft 485 kts 106°
2026-05-06 11:37 -15.72938 -61.52059 36052 ft 485 kts 106°
2026-05-06 11:38 -15.74712 -61.45320 36055 ft 485 kts 106°
2026-05-06 11:38 -15.76483 -61.38581 36051 ft 485 kts 106°
2026-05-06 11:39 -15.78254 -61.31833 36050 ft 485 kts 106°
2026-05-06 11:39 -15.80031 -61.25055 36048 ft 485 kts 106°
2026-05-06 11:40 -15.81799 -61.18299 36052 ft 485 kts 105°
2026-05-06 11:40 -15.83565 -61.11544 36052 ft 485 kts 106°
2026-05-06 11:41 -15.85325 -61.04803 36051 ft 485 kts 106°
2026-05-06 11:41 -15.87091 -60.98026 36052 ft 485 kts 106°
2026-05-06 11:42 -15.88845 -60.91289 36048 ft 484 kts 106°
2026-05-06 11:42 -15.90596 -60.84553 36046 ft 484 kts 106°
2026-05-06 11:43 -15.92357 -60.77770 36048 ft 484 kts 106°
2026-05-06 11:43 -15.94102 -60.71040 36045 ft 484 kts 106°
2026-05-06 11:44 -15.96726 -60.60903 36047 ft 484 kts 106°
2026-05-06 11:44 -15.98464 -60.54175 36048 ft 484 kts 106°
2026-05-06 11:45 -16.00204 -60.47432 36047 ft 484 kts 106°
2026-05-06 11:45 -16.01951 -60.40650 36044 ft 483 kts 106°
2026-05-06 11:46 -16.03682 -60.33926 36044 ft 483 kts 106°
2026-05-06 11:46 -16.05413 -60.27186 36044 ft 483 kts 106°
2026-05-06 11:47 -16.07140 -60.20456 36043 ft 483 kts 106°
2026-05-06 11:47 -16.08874 -60.13688 36044 ft 483 kts 106°
2026-05-06 11:48 -16.10595 -60.06963 36046 ft 483 kts 106°
2026-05-06 11:48 -16.12326 -60.00188 36045 ft 483 kts 106°
2026-05-06 11:49 -16.14046 -59.93447 36047 ft 483 kts 106°
2026-05-06 11:49 -16.15763 -59.86710 36048 ft 483 kts 106°
2026-05-06 11:50 -16.17480 -59.79961 36044 ft 483 kts 106°
2026-05-06 11:50 -16.19197 -59.73206 36047 ft 483 kts 106°
2026-05-06 11:51 -16.20911 -59.66449 36046 ft 483 kts 106°
2026-05-06 11:51 -16.22631 -59.59658 36046 ft 484 kts 106°
2026-05-06 11:52 -16.24338 -59.52914 36046 ft 484 kts 106°
2026-05-06 11:52 -16.26055 -59.46114 36043 ft 484 kts 106°
2026-05-06 11:53 -16.27761 -59.39353 36044 ft 484 kts 106°
2026-05-06 11:53 -16.29477 -59.32543 36039 ft 484 kts 106°
2026-05-06 11:54 -16.31178 -59.25780 36046 ft 484 kts 106°
2026-05-06 11:54 -16.32881 -59.19002 36042 ft 485 kts 106°
2026-05-06 11:55 -16.34579 -59.12232 36038 ft 485 kts 106°
2026-05-06 11:55 -16.36289 -59.05401 36042 ft 485 kts 106°
2026-05-06 11:56 -16.37984 -58.98627 36045 ft 485 kts 106°
2026-05-06 11:56 -16.39675 -58.91852 36038 ft 485 kts 106°
2026-05-06 11:57 -16.41374 -58.85039 36042 ft 485 kts 106°
2026-05-06 11:57 -16.43072 -58.78220 36040 ft 485 kts 106°
2026-05-06 11:58 -16.44762 -58.71425 36040 ft 485 kts 106°
2026-05-06 11:58 -16.46445 -58.64645 36045 ft 485 kts 106°
2026-05-06 11:59 -16.48128 -58.57857 36043 ft 485 kts 106°
2026-05-06 11:59 -16.49817 -58.51035 36045 ft 485 kts 106°
2026-05-06 12:00 -16.51503 -58.44211 36046 ft 485 kts 106°
2026-05-06 12:00 -16.53177 -58.37430 36046 ft 485 kts 106°
2026-05-06 12:01 -16.54857 -58.30611 36043 ft 485 kts 106°
2026-05-06 12:01 -16.56529 -58.23818 36044 ft 485 kts 106°
2026-05-06 12:02 -16.58197 -58.17031 36050 ft 485 kts 106°
2026-05-06 12:02 -16.59873 -58.10199 36045 ft 485 kts 106°
2026-05-06 12:03 -16.61537 -58.03406 36047 ft 485 kts 106°
2026-05-06 12:03 -16.63207 -57.96577 36047 ft 485 kts 106°
2026-05-06 12:04 -16.64867 -57.89783 36047 ft 485 kts 106°
2026-05-06 12:04 -16.66525 -57.82983 36047 ft 485 kts 106°
2026-05-06 12:05 -16.68191 -57.76139 36044 ft 485 kts 106°
2026-05-06 12:05 -16.69848 -57.69326 36054 ft 485 kts 106°
2026-05-06 12:06 -16.71501 -57.62516 36046 ft 486 kts 106°
2026-05-06 12:06 -16.73160 -57.55669 36050 ft 486 kts 106°
2026-05-06 12:07 -16.74812 -57.48845 36050 ft 486 kts 106°
2026-05-06 12:07 -16.76461 -57.42022 36048 ft 486 kts 106°
2026-05-06 12:08 -16.78110 -57.35188 36049 ft 486 kts 106°
2026-05-06 12:08 -16.79755 -57.28357 36054 ft 486 kts 106°
2026-05-06 12:09 -16.81398 -57.21528 36052 ft 486 kts 106°
2026-05-06 12:09 -16.83048 -57.14656 36053 ft 486 kts 106°
2026-05-06 12:10 -16.84684 -57.07835 36058 ft 486 kts 106°
2026-05-06 12:10 -16.86319 -57.01006 36062 ft 486 kts 106°
2026-05-06 12:11 -16.87961 -56.94136 36056 ft 486 kts 106°
2026-05-06 12:11 -16.89590 -56.87309 36058 ft 485 kts 106°
2026-05-06 12:12 -16.91216 -56.80486 36055 ft 485 kts 106°
2026-05-06 12:12 -16.92839 -56.73666 36058 ft 485 kts 106°
2026-05-06 12:13 -16.94469 -56.66803 36059 ft 485 kts 106°
2026-05-06 12:13 -16.96086 -56.59985 36058 ft 485 kts 106°
2026-05-06 12:14 -16.97699 -56.53173 36061 ft 485 kts 106°
2026-05-06 12:14 -16.99320 -56.46318 36059 ft 485 kts 106°
2026-05-06 12:15 -17.00929 -56.39501 36061 ft 485 kts 106°
2026-05-06 12:15 -17.02538 -56.32675 36065 ft 485 kts 106°
2026-05-06 12:16 -17.04144 -56.25848 36066 ft 485 kts 106°
2026-05-06 12:16 -17.05752 -56.19007 36065 ft 485 kts 106°
2026-05-06 12:17 -17.07362 -56.12142 36067 ft 485 kts 106°
2026-05-06 12:17 -17.08959 -56.05320 36067 ft 485 kts 106°
2026-05-06 12:18 -17.10555 -55.98495 36069 ft 485 kts 106°
2026-05-06 12:18 -17.12151 -55.91657 36068 ft 485 kts 106°
2026-05-06 12:19 -17.13745 -55.84817 36069 ft 485 kts 106°
2026-05-06 12:19 -17.15342 -55.77955 36068 ft 484 kts 106°
2026-05-06 12:20 -17.16933 -55.71106 36070 ft 484 kts 106°
2026-05-06 12:20 -17.18511 -55.64303 36067 ft 484 kts 106°
2026-05-06 12:21 -17.19830 -55.58606 36071 ft 483 kts 106°
2026-05-06 12:21 -17.21411 -55.51768 36073 ft 483 kts 106°
2026-05-06 12:22 -17.22989 -55.44932 36076 ft 483 kts 106°
2026-05-06 12:22 -17.24556 -55.38134 36072 ft 483 kts 106°
2026-05-06 12:23 -17.26131 -55.31291 36073 ft 482 kts 106°
2026-05-06 12:23 -17.27699 -55.24465 36080 ft 482 kts 106°
2026-05-06 12:24 -17.29256 -55.17677 36079 ft 482 kts 106°
2026-05-06 12:24 -17.30820 -55.10846 36083 ft 481 kts 106°
2026-05-06 12:25 -17.32372 -55.04057 36083 ft 481 kts 106°
2026-05-06 12:25 -17.33927 -54.97242 36097 ft 481 kts 106°
2026-05-06 12:26 -17.35482 -54.90420 36103 ft 481 kts 106°
2026-05-06 12:27 -17.40214 -54.69577 36108 ft 481 kts 106°
2026-05-06 12:28 -17.41748 -54.62800 36117 ft 480 kts 106°
2026-05-06 12:28 -17.43285 -54.55998 36125 ft 481 kts 106°
2026-05-06 12:29 -17.44830 -54.49151 36124 ft 481 kts 106°
2026-05-06 12:30 -17.49427 -54.28702 36136 ft 481 kts 106°
2026-05-06 12:31 -17.50952 -54.21893 36131 ft 481 kts 106°
2026-05-06 12:31 -17.52471 -54.15102 36135 ft 481 kts 106°
2026-05-06 12:32 -17.55399 -54.01981 36136 ft 481 kts 106°
2026-05-06 12:33 -17.56922 -53.95134 36138 ft 481 kts 106°
2026-05-06 12:33 -17.57927 -53.90614 36140 ft 481 kts 106°